| time (UTC) | temp F | wind direction | speed MPH | gust MPH | rain 1hr in | rain 24hr in | rain mn in | humidity % | barometer mb |
| 20260901094529 | 66 | 103 | 2.0 | 7.0 | 0.00 | 0.47 | 0.02 | 98 | 962.5 |
| 20260901093027 | 66 | 119 | 2.0 | 3.0 | 0.01 | 0.47 | 0.02 | 98 | 962.7 |
| 20260901091535 | 67 | 119 | 2.0 | 3.0 | 0.01 | 0.47 | 0.02 | 98 | 962.6 |
| 20260901090026 | 66 | 134 | 2.0 | 4.0 | 0.01 | 0.47 | 0.02 | 98 | 962.8 |
| 20260901084522 | 66 | 114 | 2.0 | 4.0 | 0.02 | 0.47 | 0.02 | 98 | 963.1 |
| 20260901083021 | 66 | 127 | 2.0 | 4.0 | 0.01 | 0.46 | 0.01 | 98 | 963.2 |
| 20260901081520 | 66 | 111 | 2.0 | 4.0 | 0.01 | 0.46 | 0.01 | 97 | 963.2 |
| 20260901080021 | 66 | 119 | 0.0 | 3.0 | 0.01 | 0.46 | 0.01 | 97 | 963.4 |
| 20260901074518 | 66 | 111 | 3.0 | 7.0 | 0.00 | 0.45 | 0.00 | 97 | 963.2 |
| 20260901073023 | 66 | 93 | 2.0 | 4.0 | 0.00 | 0.45 | 0.00 | 97 | 963.3 |
| 20260901071517 | 66 | 123 | 0.0 | 2.0 | 0.00 | 0.45 | 0.00 | 97 | 963.6 |
| 20260901070025 | 66 | 123 | 1.0 | 3.0 | 0.00 | 0.45 | 0.00 | 97 | 963.3 |
| 20260901064515 | 66 | 123 | 1.0 | 3.0 | 0.00 | 0.45 | 0.00 | 97 | 963.4 |
| 20260901063013 | 66 | 123 | 2.0 | 4.0 | 0.00 | 0.45 | 0.00 | 97 | 963.6 |
| 20260901061512 | 66 | 124 | 2.0 | 3.0 | 0.00 | 0.45 | 0.00 | 97 | 963.6 |
| 20260901060010 | 66 | 124 | 1.0 | 3.0 | 0.00 | 0.45 | 0.00 | 98 | 963.7 |
| 20260901054508 | 66 | 124 | 1.0 | 3.0 | 0.00 | 0.45 | 0.00 | 97 | 964.0 |
| 20260901053011 | 66 | 124 | 1.0 | 2.0 | 0.00 | 0.45 | 0.00 | 97 | 964.1 |
| 20260901051506 | 66 | 124 | 0.0 | 2.0 | 0.00 | 0.45 | 0.00 | 97 | 964.2 |
| 20260901050006 | 66 | 124 | 1.0 | 2.0 | 0.00 | 0.45 | 0.00 | 97 | 964.2 |
| 20260901044506 | 66 | 124 | 1.0 | 3.0 | 0.00 | 0.45 | 0.00 | 97 | 964.2 |
| 20260901043006 | 66 | 124 | 1.0 | 3.0 | 0.00 | 0.45 | 0.00 | 97 | 964.3 |
| 20260901041503 | 66 | 140 | 1.0 | 3.0 | 0.00 | 0.45 | 0.00 | 97 | 964.3 |
| 20260901040104 | 66 | 155 | 1.0 | 3.0 | 0.00 | 0.45 | 0.00 | 97 | 964.1 |
| 20260901034605 | 66 | 162 | 1.0 | 2.0 | 0.00 | 0.45 | 0.45 | 97 | 964.2 |
| 20260901033106 | 66 | 162 | 0.0 | 1.0 | 0.00 | 0.45 | 0.45 | 97 | 964.2 |
| 20260901031557 | 66 | 162 | 0.0 | 1.0 | 0.00 | 0.45 | 0.45 | 97 | 964.4 |
| 20260901030055 | 66 | 162 | 0.0 | 1.0 | 0.00 | 0.45 | 0.45 | 97 | 964.3 |
| 20260901024600 | 65 | 162 | 0.0 | 2.0 | 0.00 | 0.45 | 0.45 | 97 | 964.4 |
| 20260901023054 | 65 | 162 | 0.0 | 0.0 | 0.00 | 0.45 | 0.45 | 97 | 964.5 |
| 20260901021558 | 65 | 162 | 0.0 | 3.0 | 0.07 | 0.45 | 0.45 | 97 | 964.6 |
| 20260901020055 | 65 | 134 | 2.0 | 4.0 | 0.10 | 0.45 | 0.45 | 97 | 964.5 |
| 20260901014552 | 65 | 123 | 2.0 | 6.0 | 0.11 | 0.45 | 0.45 | 97 | 964.7 |
| 20260901013052 | 65 | 121 | 4.0 | 7.0 | 0.12 | 0.45 | 0.45 | 97 | 964.7 |
| 20260901011558 | 65 | 131 | 1.0 | 2.0 | 0.06 | 0.38 | 0.38 | 97 | 964.9 |
| 20260901010051 | 65 | 131 | 1.0 | 6.0 | 0.03 | 0.35 | 0.35 | 97 | 964.6 |
| 20260901004552 | 65 | 98 | 3.0 | 6.0 | 0.02 | 0.34 | 0.34 | 97 | 964.6 |
| 20260901003056 | 65 | 106 | 2.0 | 6.0 | 0.01 | 0.33 | 0.33 | 97 | 964.4 |
| 20260901001553 | 65 | 121 | 1.0 | 7.0 | 0.00 | 0.32 | 0.32 | 97 | 964.3 |
| 20260901000048 | 65 | 117 | 3.0 | 7.0 | 0.00 | 0.32 | 0.32 | 97 | 964.3 |
| 20260831234547 | 65 | 113 | 4.0 | 7.0 | 0.00 | 0.32 | 0.32 | 97 | 964.5 |
| 20260831233048 | 65 | 109 | 4.0 | 7.0 | 0.00 | 0.32 | 0.32 | 97 | 964.5 |
| 20260831231545 | 65 | 113 | 2.0 | 6.0 | 0.01 | 0.32 | 0.32 | 97 | 964.7 |
| 20260831230044 | 65 | 115 | 3.0 | 6.0 | 0.01 | 0.32 | 0.32 | 97 | 964.8 |
| 20260831224542 | 65 | 94 | 2.0 | 4.0 | 0.01 | 0.32 | 0.32 | 97 | 964.9 |
| 20260831223043 | 65 | 96 | 0.0 | 4.0 | 0.01 | 0.32 | 0.32 | 97 | 965.4 |
| 20260831221543 | 65 | 142 | 0.0 | 3.0 | 0.00 | 0.31 | 0.31 | 96 | 965.4 |
| 20260831220039 | 65 | 136 | 2.0 | 6.0 | 0.02 | 0.31 | 0.31 | 96 | 965.5 |
| 20260831214544 | 65 | 69 | 0.0 | 7.0 | 0.04 | 0.31 | 0.31 | 96 | 965.4 |
| 20260831213043 | 65 | 120 | 0.0 | 6.0 | 0.04 | 0.31 | 0.31 | 96 | 965.5 |
| 20260831211538 | 65 | 121 | 1.0 | 4.0 | 0.04 | 0.31 | 0.31 | 96 | 965.5 |
| 20260831210038 | 65 | 97 | 3.0 | 6.0 | 0.03 | 0.28 | 0.28 | 96 | 965.4 |
| 20260831204551 | 65 | 80 | 4.0 | 5.0 | 0.04 | 0.27 | 0.27 | 96 | 965.4 |
| 20260831203054 | 65 | 104 | 3.0 | 5.0 | 0.05 | 0.27 | 0.27 | 96 | 965.5 |
| 20260831201533 | 65 | 86 | 1.0 | 6.0 | 0.05 | 0.27 | 0.27 | 96 | 965.5 |
| 20260831200038 | 65 | 110 | 2.0 | 6.0 | 0.04 | 0.26 | 0.26 | 96 | 965.7 |
| 20260831194530 | 65 | 99 | 4.0 | 8.0 | 0.01 | 0.23 | 0.23 | 96 | 965.8 |
| 20260831193028 | 64 | 97 | 4.0 | 8.0 | 0.00 | 0.22 | 0.22 | 96 | 965.8 |
| 20260831191527 | 64 | 84 | 4.0 | 8.0 | 0.00 | 0.22 | 0.22 | 96 | 966.0 |
| 20260831190030 | 64 | 96 | 5.0 | 10.0 | 0.00 | 0.22 | 0.22 | 95 | 966.3 |
| 20260831184529 | 64 | 82 | 4.0 | 10.0 | 0.01 | 0.22 | 0.22 | 96 | 966.3 |
| 20260831183027 | 64 | 99 | 3.0 | 8.0 | 0.03 | 0.22 | 0.22 | 95 | 966.5 |
| 20260831181526 | 63 | 114 | 4.0 | 7.0 | 0.06 | 0.22 | 0.22 | 95 | 966.7 |
| 20260831180021 | 63 | 91 | 5.0 | 9.0 | 0.07 | 0.22 | 0.22 | 95 | 966.8 |
| 20260831174522 | 63 | 119 | 4.0 | 8.0 | 0.08 | 0.21 | 0.21 | 94 | 966.9 |
| 20260831173019 | 63 | 101 | 3.0 | 8.0 | 0.10 | 0.19 | 0.19 | 94 | 967.2 |
| 20260831171519 | 63 | 93 | 4.0 | 8.0 | 0.15 | 0.16 | 0.16 | 94 | 967.3 |
| 20260831170026 | 64 | 115 | 4.0 | 9.0 | 0.15 | 0.15 | 0.15 | 93 | 967.4 |
| 20260831164517 | 64 | 74 | 3.0 | 7.0 | 0.12 | 0.12 | 0.12 | 93 | 967.5 |
| 20260831163017 | 65 | 85 | 2.0 | 4.0 | 0.08 | 0.08 | 0.08 | 92 | 967.6 |
| 20260831161515 | 65 | 90 | 1.0 | 3.0 | 0.00 | 0.00 | 0.00 | 89 | 967.9 |
| 20260831160032 | 65 | 69 | 2.0 | 5.0 | 0.00 | 0.00 | 0.00 | 89 | 967.5 |
| 20260831154513 | 65 | 63 | 2.0 | 5.0 | 0.00 | 0.00 | 0.00 | 89 | 967.5 |
| 20260831153032 | 65 | 112 | 3.0 | 7.0 | 0.00 | 0.00 | 0.00 | 88 | 967.5 |
| 20260831151514 | 66 | 66 | 2.0 | 6.0 | 0.00 | 0.00 | 0.00 | 88 | 967.4 |
| 20260831150011 | 65 | 94 | 3.0 | 8.0 | 0.00 | 0.00 | 0.00 | 89 | 967.4 |
| 20260831144510 | 65 | 117 | 2.0 | 6.0 | 0.00 | 0.00 | 0.00 | 89 | 967.6 |
| 20260831143007 | 65 | 82 | 2.0 | 7.0 | 0.00 | 0.00 | 0.00 | 89 | 967.3 |
| 20260831141516 | 64 | 74 | 2.0 | 7.0 | 0.00 | 0.00 | 0.00 | 90 | 967.3 |
| 20260831140009 | 64 | 65 | 3.0 | 9.0 | 0.00 | 0.00 | 0.00 | 90 | 967.5 |
| 20260831134507 | 64 | 110 | 2.0 | 4.0 | 0.00 | 0.00 | 0.00 | 91 | 967.6 |
| 20260831133003 | 63 | 117 | 1.0 | 4.0 | 0.00 | 0.00 | 0.00 | 92 | 967.6 |
| 20260831131507 | 63 | 103 | 1.0 | 6.0 | 0.00 | 0.00 | 0.00 | 94 | 967.7 |
| 20260831130123 | 62 | 71 | 2.0 | 5.0 | 0.00 | 0.00 | 0.00 | 95 | 967.6 |
| 20260831124602 | 62 | 74 | 1.0 | 3.0 | 0.00 | 0.00 | 0.00 | 96 | 967.6 |
| 20260831123057 | 62 | 65 | 2.0 | 4.0 | 0.00 | 0.00 | 0.00 | 96 | 967.6 |
| 20260831121555 | 61 | 111 | 0.0 | 2.0 | 0.00 | 0.00 | 0.00 | 96 | 967.7 |
| 20260831120142 | 61 | 164 | 0.0 | 1.0 | 0.00 | 0.00 | 0.00 | 96 | 967.8 |
| 20260831114551 | 61 | 164 | 0.0 | 0.0 | 0.00 | 0.00 | 0.00 | 96 | 967.6 |
| 20260831113050 | 60 | 164 | 0.0 | 1.0 | 0.00 | 0.00 | 0.00 | 96 | 967.5 |
| 20260831111552 | 60 | 238 | 0.0 | 3.0 | 0.00 | 0.00 | 0.00 | 96 | 967.6 |
| 20260831110044 | 60 | 236 | 0.0 | 1.0 | 0.00 | 0.00 | 0.00 | 96 | 967.3 |
| 20260831104544 | 60 | 211 | 0.0 | 3.0 | 0.00 | 0.00 | 0.00 | 95 | 967.0 |
| 20260831103048 | 60 | 213 | 0.0 | 0.0 | 0.00 | 0.00 | 0.00 | 96 | 966.8 |
| 20260831101541 | 60 | 213 | 0.0 | 0.0 | 0.00 | 0.00 | 0.00 | 95 | 967.1 |
| 20260831100045 | 60 | 213 | 0.0 | 0.0 | 0.00 | 0.00 | 0.00 | 95 | 966.9 |